User: anonymous   Login
Location: Unspecified
(0.0000°N, 0.0000°E)
Time: 21:19:50
(UTC+00:00)
Language:

KANOPUS-V-IK - Orbit

View from above orbital plane
View from above orbital plane
View from above satellite
View from above satellite

Ground track
Ground track

The orbit data is extracted from the following two-line orbital elements,

1 42825U 17042A   18322.49994421  .00001670  00000-0  83100-4 0  9993
2 42825  97.4238 228.6591 0001793  83.0215  32.2890 15.18979496 74721
Epoch (UTC): 18 November 2018 11:59:55
Eccentricity: 0.0001793
inclination: 97.4238°
perigee height: 507 km
apogee height: 510 km
right ascension of ascending node: 228.6591°
argument of perigee: 83.0215°
revolutions per day: 15.18979496
mean anomaly at epoch: 32.2890°
orbit number at epoch: 7472

The dashed part of the orbit path shows where the satellite is in the earth's shadow,  

DLR